Regional Weather Roundup
Issued by NWS State College, PA

Home | Current Version | Previous Version | Text Only | Print | Product List | Glossary On
Versions: 1 2 3 4 5 6 7 8 9 10 11 12 13 14 15 16 17 18 19 20 21 22 23 24 25 26 27 28 29 30 31 32 33 34 35 36 37 38 39 40 41 42 43 44 45 46 47 48 49 50
000
ASUS41 KCTP 260010
RWRCTP

REGIONAL WEATHER ROUNDUP
NATIONAL WEATHER SERVICE STATE COLLEGE PA
800 PM EDT SAT MAR 25 2017

Note: "fair" indicates few or no clouds below 12,000 feet with no
significant weather and/or obstructions to visibility.

* = STATION THAT DOES NOT REPORT PRECIPITATION /E.G. RAIN...SNOW...ETC/
    THUNDER OR FOG.

PAZ002>004-007>009-013>016-020>023-029>032-260100-
WESTERN PENNSYLVANIA

CITY           SKY/WX    TMP DP  RH WIND       PRES   REMARKS
ERIE           MOCLDY    38  34  85 NE8       30.21S
MEADVILLE      MOCLDY    55  46  71 NE5       30.17S
FRANKLIN*      MOCLDY    59  46  63 E3        30.19S
NEW CASTLE     FAIR      63  52  67 NE7       30.16S
BEAVER COUNTY  NOT AVBL
BUTLER*        CLOUDY    64  52  63 NE7       30.17R
PITTSBURGH INT CLOUDY    67  52  58 E6        30.14R
PITTSBURGH     CLOUDY    69  49  48 NE3       30.14R
INDIANA*       PTCLDY    64  54  68 E3        30.20R
LATROBE        CLOUDY    66  52  59 CALM      30.16S
WASHINGTON CO* CLOUDY    64  52  63 CALM      30.16S
$$

PAZ004>006-010>012-017>019-024>028-033>037-041-042-045-046-049>053-260100-
CENTRAL PENNSYLVANIA

CITY           SKY/WX    TMP DP  RH WIND       PRES   REMARKS
BRADFORD       CLOUDY    46  40  79 E7        30.24R
DUBOIS         MOCLDY    57  49  74 E5        30.20R
CLEARFIELD       N/A    N/A N/A N/A MISG      30.22R
JOHNSTOWN      MOCLDY    64  49  57 CALM      30.19R
ALTOONA        PTCLDY    58  49  72 NE14      30.20R
STATE COLLEGE  MOCLDY    48  43  81 NE6       30.24R
WILLIAMSPORT   CLOUDY    48  39  71 VRB5      30.28R
SELINSGROVE    CLOUDY    51  43  74 NE6       30.25R
FT INDIANTOWN  CLOUDY    58  47  66 E7        30.23R
CAPITAL CITY   CLOUDY    65  45  48 NE16      30.21R
HARRISBURG     MOCLDY    63  48  58 VRB6G21   30.20R
YORK           CLOUDY    61  53  75 CALM      30.17R
$$

PAZ038>040-043-044-047-048-054-055-060>062-067>071-260100-
EASTERN PENNSYLVANIA

CITY           SKY/WX    TMP DP  RH WIND       PRES   REMARKS
SCRANTON       CLOUDY    43  42  97 SE5       30.29R
MOUNT POCONO   CLOUDY    40  40 100 NE7       30.27R FOG
ALLENTOWN      CLOUDY    52  39  61 NE7       30.27R
QUAKERTOWN*    CLOUDY    50  41  71 SE6       30.27R
READING        LGT RAIN  56  44  64 E6        30.24R
LANCASTER      MOCLDY    59  46  62 E20       30.21R
COATESVILLE    PTCLDY    55  45  67 NE8G16    30.25R
POTTSTOWN      CLOUDY    51  41  68 E6        30.27R
BLUE BELL      CLOUDY    52  41  66 E9        30.26R
DOYLESTOWN     PTCLDY    50  41  71 CALM      30.26R
WILLOW GROVE   NOT AVBL
NORTH PHILA    PTCLDY    52  43  71 E13       30.29R
PHILADELPHIA   CLOUDY    50  43  77 E18       30.28R
$$



USA.gov is the U.S. government's official web portal to all federal, state and local government web resources and services.